GFSGL_250_rhum_000.txt.gz
RH
56 58 58 60 60 54 48 52 62 62 62 51 45 35 23 16 12 8 7 6 6 5 4 3 3 3 3 3 3 2 2 2 3 3 3 2 2 2 2 2 3 3 3
52 56 61 60 54 50 54 64 62 74 62 54 37 24 15 12 8 7 7 6 5 4 3 3 3 3 3 3 3 3 3 3 3 4 3 3 2 2 2 2 2 2 3
58 56 54 52 51 59 64 71 84 76 67 46 28 15 12 9 8 7 5 4 4 4 3 3 4 3 3 3 3 3 3 3 3 3 4 3 3 2 3 3 2 3 2
53 49 48 55 61 64 72 82 78 74 54 31 17 12 9 8 7 5 4 4 4 3 4 4 4 4 4 4 4 3 3 3 3 3 3 4 3 2 3 3 3 3 3
51 56 61 63 64 77 90 84 76 61 40 21 13 10 8 7 5 5 4 4 4 4 4 4 4 4 4 4 4 3 3 3 3 3 3 3 3 3 3 3 3 3 3
68 71 66 69 84 97 92 87 56 36 19 13 10 9 7 5 5 4 4 4 4 5 5 4 4 4 4 3 3 3 3 3 3 3 3 3 3 3 3 3 3 3 3
77 74 77 88 100 98 88 64 30 18 12 9 8 7 6 5 5 4 4 5 5 4 4 4 4 4 4 3 3 3 3 3 3 3 3 3 3 3 3 3 4 4 4
79 76 84 99 100 91 58 25 18 14 10 9 7 6 5 4 4 4 5 5 4 3 4 4 3 3 3 3 3 2 3 3 3 3 3 3 3 3 3 3 4 4 4
81 94 91 100 97 69 30 19 14 10 9 8 6 5 4 4 4 6 5 4 3 3 3 3 3 3 3 3 3 3 3 3 2 2 2 3 3 3 3 3 4 4 4
95 86 98 98 74 34 22 15 10 10 8 6 6 5 4 4 6 6 5 4 3 3 3 3 3 4 4 4 5 4 3 3 2 2 2 3 3 3 3 3 4 4 4
94 99 85 72 41 26 17 12 10 9 7 6 5 4 4 5 6 5 4 4 4 4 4 4 4 4 5 5 5 4 3 3 2 2 2 3 3 4 4 4 4 4 5
99 82 64 42 29 18 12 11 9 8 6 5 4 5 5 6 6 5 4 5 5 5 5 4 4 5 5 6 6 4 4 3 2 2 3 4 4 4 4 4 5 5 6
81 59 37 28 18 14 11 9 8 6 6 4 5 5 6 6 5 4 5 6 6 6 6 5 4 5 5 6 6 4 4 3 3 3 3 4 5 5 5 5 6 6 6
58 31 24 18 15 12 10 8 7 6 5 5 6 6 7 6 5 5 6 6 6 6 6 5 4 5 5 6 6 5 4 4 3 3 3 4 5 6 6 6 6 6 7
34 23 19 16 14 10 9 7 6 5 5 6 6 6 7 6 5 6 6 6 6 6 5 5 4 4 5 6 6 5 4 4 4 3 3 4 5 6 6 6 6 7 7
26 21 16 14 11 10 8 6 6 5 6 6 6 6 6 5 5 6 6 6 7 6 5 5 4 4 4 5 6 6 5 5 5 4 4 4 6 6 7 7 7 7 7
22 18 14 11 10 8 6 6 4 5 6 6 6 6 6 5 6 6 7 7 7 6 6 4 4 4 4 4 5 6 6 5 5 5 4 5 5 7 7 7 7 7 7
18 14 10 10 9 6 5 5 5 6 6 6 6 6 6 5 7 7 7 7 7 6 6 4 4 4 4 4 4 5 6 6 5 6 6 5 6 7 8 8 8 8 8
14 10 9 9 6 5 5 4 5 5 6 6 6 6 6 5 7 7 7 7 7 7 6 5 4 4 4 4 4 5 5 6 6 6 6 7 6 7 8 8 9 9 9
10 9 9 7 5 5 4 5 5 5 5 6 6 6 5 6 8 7 7 7 6 6 5 5 4 4 4 4 4 5 5 5 6 6 6 7 8 7 7 8 9 10 10
8 8 8 5 5 5 4 5 5 5 5 5 5 5 5 7 8 8 8 7 6 6 5 5 5 4 4 4 4 5 5 5 5 6 7 6 7 8 9 8 8 9 10
8 7 6 5 5 4 5 6 5 5 5 5 5 4 5 7 9 8 8 6 6 6 6 5 5 5 4 4 4 4 5 5 5 5 6 7 6 6 8 9 9 9 9
7 6 5 5 4 5 5 5 5 5 5 5 4 4 6 8 9 9 8 6 6 5 5 5 5 5 4 5 5 5 4 5 5 5 5 6 6 6 6 6 7 8 9
6 4 5 4 4 5 5 5 4 5 5 4 4 5 8 9 9 8 7 6 6 5 5 5 5 5 4 4 5 5 4 4 5 5 5 5 5 6 6 6 6 6 6
4 4 5 4 5 5 5 5 4 4 4 4 4 6 8 8 8 7 6 6 6 5 5 5 5 5 4 4 4 4 4 4 4 4 4 5 5 5 5 5 5 5 6
4 4 4 5 4 4 4 4 4 4 4 4 5 6 7 7 7 6 5 5 5 5 5 5 5 5 5 4 4 4 4 4 4 4 3 4 4 4 4 4 4 5 5

GFSGL_250_rhum_003.txt.gz
RH
50 51 49 44 46 54 61 57 62 58 69 81 77 70 56 43 25 17 11 8 7 6 5 4 4 3 3 3 3 3 3 3 4 3 4 2 2 2 2 3 2 3 2
42 40 41 47 54 56 54 57 56 71 79 76 76 63 49 29 18 12 9 7 6 5 4 4 3 3 3 3 4 4 3 3 3 3 3 3 2 2 2 3 3 3 3
43 41 45 49 50 56 59 66 79 79 70 76 64 50 34 18 12 10 8 6 5 4 4 3 3 4 4 4 4 3 3 3 3 4 4 3 3 3 2 2 3 3 3
40 44 44 46 58 61 78 82 80 83 89 66 43 31 18 12 10 8 6 5 4 4 3 4 4 4 4 3 3 2 2 3 3 3 3 4 3 3 3 2 3 3 4
46 44 50 58 65 76 85 91 94 90 69 47 31 19 13 11 8 6 5 5 4 4 4 4 4 3 3 3 3 3 3 3 2 2 2 3 3 3 3 2 3 3 3
48 50 57 70 78 89 100 97 93 85 57 29 18 13 12 10 6 5 5 4 4 4 5 5 4 3 2 2 2 3 3 2 2 2 2 3 3 2 2 2 3 3 3
55 59 74 88 91 100 96 100 87 64 26 17 13 11 10 7 6 5 4 4 4 5 5 4 3 3 3 3 3 2 2 2 2 2 2 3 3 3 2 2 2 3 3
70 84 94 95 98 92 87 74 51 27 17 14 11 10 8 6 5 4 4 4 4 5 4 3 4 4 4 3 3 3 3 3 3 3 3 2 3 3 3 3 3 3 3
87 99 99 85 92 87 63 39 27 19 16 12 10 10 6 6 5 5 5 5 5 4 3 4 4 4 4 4 4 4 4 4 4 4 3 3 2 2 2 3 3 3 3
97 97 91 86 85 59 32 26 21 18 14 11 10 7 6 5 5 6 5 5 5 4 3 4 4 5 4 4 4 4 4 5 5 4 3 3 2 2 2 3 3 3 3
97 92 79 83 52 32 26 21 18 14 11 10 9 6 5 5 6 6 6 6 5 4 4 4 4 4 4 4 4 5 5 5 4 4 3 2 2 2 2 3 3 3 3
83 76 81 54 30 26 24 18 14 12 10 10 6 6 5 6 6 6 6 6 4 4 4 4 5 4 4 4 4 5 6 6 4 4 3 3 3 3 3 3 3 4 3
75 77 52 29 26 24 19 14 13 10 10 8 6 5 5 6 7 6 6 6 5 6 5 5 5 4 3 3 4 5 6 6 4 4 3 3 3 4 4 4 4 4 4
70 49 28 28 23 20 16 13 11 9 9 6 5 5 6 6 7 7 7 6 6 6 6 5 5 4 4 4 4 4 6 6 5 4 3 3 3 4 4 5 4 5 5
44 31 25 24 22 17 13 11 8 9 6 5 5 6 6 6 6 7 7 5 6 6 6 6 6 5 4 3 4 4 5 6 5 5 4 3 3 4 5 6 6 5 6
25 23 23 23 17 13 11 8 8 8 5 5 5 6 6 6 6 7 6 5 7 7 7 6 6 6 4 3 4 4 4 5 6 5 5 4 4 4 5 6 6 6 6
20 22 20 16 13 11 8 8 9 6 5 5 6 6 6 6 6 6 5 5 7 7 8 6 6 5 4 4 4 4 4 4 6 5 5 5 4 4 5 6 7 7 7
20 17 15 13 11 8 7 8 7 5 5 5 7 6 5 6 6 5 5 6 8 8 8 6 6 5 4 4 4 4 4 5 5 6 5 5 5 5 5 6 7 7 7
15 12 12 10 8 6 7 8 5 5 5 6 7 5 5 5 5 5 5 7 9 9 8 7 6 6 5 4 4 4 4 4 5 5 6 6 6 6 6 6 7 8 8
12 11 10 8 7 7 7 6 5 5 5 6 6 6 5 5 5 5 6 8 10 10 8 7 6 6 5 4 5 4 4 4 5 5 5 6 6 6 7 7 7 8 9
11 9 8 6 7 8 7 5 5 5 6 6 6 5 5 5 5 5 7 10 11 10 8 7 6 6 5 5 5 5 4 4 5 6 6 5 6 6 6 7 8 8 8
8 7 6 6 8 7 5 5 5 6 6 5 5 5 4 5 5 6 8 10 10 9 8 7 6 6 6 6 5 5 5 5 5 5 6 6 5 6 6 6 7 8 8
6 6 6 7 6 5 5 5 5 6 5 5 4 4 4 4 5 6 8 9 9 9 8 7 6 6 6 6 5 5 5 5 5 5 5 6 6 6 5 6 6 7 8
6 7 7 6 4 4 5 5 6 5 5 4 4 4 4 4 5 6 7 8 8 8 7 7 6 6 6 6 6 5 5 5 5 5 5 5 6 6 6 5 6 6 6
7 6 5 4 4 4 5 6 6 5 5 4 4 4 4 4 5 6 7 8 7 6 6 6 5 5 5 6 6 5 5 4 4 5 5 4 5 5 5 5 5 5 5
5 4 4 4 4 4 5 6 5 5 4 4 3 3 4 5 6 6 7 7 6 6 5 5 5 5 5 5 5 5 5 4 4 4 4 4 4 4 4 4 5 5 5

GFSGL_250_rhum_006.txt.gz
RH
75 72 65 58 49 49 48 47 51 57 58 66 75 65 67 51 39 30 20 17 15 11 8 6 5 4 4 3 3 3 3 3 4 4 4 4 3 3 3 3 3 3 2
78 67 60 54 55 54 55 59 61 59 65 75 68 66 48 40 27 22 18 14 10 8 6 5 4 3 3 3 3 4 4 3 3 3 3 3 3 2 3 3 3 3 3
74 65 58 60 60 68 70 68 66 70 70 70 67 60 38 25 21 18 13 10 9 6 5 4 4 3 4 4 4 4 3 3 2 2 2 3 3 2 3 2 2 3 3
76 65 72 71 76 76 76 73 78 77 71 77 69 44 25 21 17 12 9 9 6 5 4 4 4 4 4 4 4 3 2 2 2 2 2 3 3 3 2 2 2 3 3
80 80 81 82 81 80 77 84 82 81 85 70 44 24 20 16 12 9 9 7 5 5 4 5 5 5 5 4 3 3 3 3 2 2 2 2 2 2 3 2 2 2 3
87 85 84 76 79 81 81 88 92 82 62 44 26 21 17 14 9 9 8 6 5 4 4 5 5 5 4 3 3 3 3 3 2 2 2 2 2 2 2 3 2 2 3
90 85 75 84 83 87 92 95 80 59 46 38 24 17 14 10 8 8 6 5 5 5 5 5 5 5 3 4 3 4 4 3 3 3 3 3 2 2 2 2 3 2 2
84 78 87 90 93 98 92 76 60 50 40 27 18 15 11 8 8 7 6 5 5 6 6 5 5 4 4 4 4 4 4 3 3 3 3 3 3 3 2 2 2 3 3
84 81 95 100 100 86 66 50 49 35 22 17 15 11 8 8 8 6 5 5 5 6 6 5 5 4 4 4 4 4 3 3 3 3 3 4 4 3 3 2 2 3 3
84 99 100 99 80 48 42 37 24 18 18 15 11 10 8 8 8 6 5 6 5 6 6 5 4 4 4 4 4 4 3 3 4 4 4 4 4 3 2 2 2 2 2
99 100 90 71 50 26 19 17 16 16 14 11 10 9 8 8 6 5 5 6 5 5 6 5 4 4 5 4 4 4 3 3 4 4 4 4 3 3 2 2 2 2 2
93 81 64 39 22 14 15 15 15 15 12 10 10 8 8 8 5 5 6 6 5 6 6 4 4 4 5 5 4 4 3 3 4 4 5 4 3 3 2 2 3 3 3
68 49 31 19 13 13 14 14 15 13 11 10 10 8 8 6 5 5 6 6 5 6 5 4 6 5 5 5 5 4 3 3 4 5 5 4 4 3 2 3 4 4 4
46 22 19 11 12 12 13 15 14 12 10 9 9 9 7 5 5 6 6 6 5 6 5 5 7 6 5 5 5 4 4 4 4 4 5 4 4 3 3 3 4 4 4
20 20 22 15 14 15 15 15 13 11 9 9 9 8 5 5 5 6 6 5 5 5 5 6 8 7 6 5 5 4 4 4 4 4 5 4 4 4 3 3 4 4 5
36 26 15 14 14 15 14 13 11 9 8 9 9 6 5 5 6 6 6 5 5 5 5 7 8 8 6 5 5 4 4 4 4 4 4 5 4 4 3 3 4 4 5
25 18 14 14 14 13 12 11 9 8 8 9 8 5 5 5 6 6 6 5 5 5 6 8 9 8 6 6 5 5 4 4 4 4 4 5 5 5 4 4 4 5 6
17 14 13 13 12 10 10 10 9 8 8 8 6 5 5 6 6 6 5 5 5 5 7 10 10 8 6 6 6 5 4 4 4 4 4 4 6 5 5 4 4 5 6
13 13 12 11 10 10 9 9 8 8 8 6 5 6 6 5 5 6 5 4 4 6 8 10 10 8 7 6 6 5 5 5 4 4 4 4 5 6 6 5 5 5 6
11 11 10 10 10 8 9 8 8 7 5 5 5 6 6 5 5 5 4 4 4 6 8 9 10 9 7 7 6 6 5 5 5 4 4 5 5 5 6 6 5 5 6
11 11 10 9 9 8 8 7 7 6 4 5 5 6 6 5 5 4 4 4 5 6 8 8 9 8 8 7 6 5 6 5 5 5 5 5 5 5 6 7 6 6 6
10 9 9 8 8 7 7 6 5 4 5 5 6 6 6 5 4 4 4 4 5 6 7 8 9 8 7 7 6 6 6 5 6 5 5 5 5 5 6 6 7 7 7
8 8 8 7 7 6 5 4 4 5 5 6 6 5 5 5 4 4 4 4 5 6 7 8 8 8 7 6 6 6 6 5 5 5 5 5 5 5 5 6 6 6 7
7 7 7 7 5 4 4 4 5 5 6 6 6 5 5 5 4 4 4 5 6 6 6 6 7 6 6 5 5 5 5 6 6 5 5 5 5 5 5 5 6 6 6
6 5 4 4 4 4 5 5 5 6 6 6 5 5 6 6 5 4 4 6 6 6 6 6 5 5 5 5 5 5 5 5 5 5 5 5 5 4 4 4 5 6 6
4 4 4 5 5 5 5 6 6 5 5 4 5 6 7 7 6 5 5 6 6 6 5 5 4 5 5 4 4 5 5 5 5 5 5 4 4 4 4 4 4 4 4

GFSGL_250_rhum_009.txt.gz
RH
84 80 85 91 86 80 80 77 80 72 66 64 64 62 60 62 56 49 40 31 22 15 15 12 8 7 6 4 4 3 3 3 4 4 3 3 3 3 3 3 3 3 3
83 84 86 94 84 79 80 82 71 69 69 66 66 59 66 62 45 37 34 26 16 15 11 8 7 6 4 4 3 3 4 4 4 4 3 3 3 2 2 2 2 3 3
84 92 92 90 84 82 86 78 76 73 70 70 71 72 57 36 31 26 20 14 14 11 9 7 6 4 4 4 4 4 4 4 4 3 3 2 2 2 2 2 2 2 2
90 92 84 85 87 90 83 79 81 80 77 78 72 48 33 22 19 15 13 14 11 9 7 6 5 4 4 4 4 4 4 4 3 2 2 3 2 2 2 2 2 2 2
94 94 92 93 96 88 82 85 77 72 74 74 57 32 17 12 12 11 13 11 9 8 7 5 4 4 4 5 5 4 4 3 3 3 3 3 3 2 2 2 2 2 2
97 98 98 87 89 90 94 88 82 80 71 52 27 14 10 11 11 12 11 10 8 7 6 4 4 5 5 5 5 4 3 3 3 3 3 3 3 3 3 2 2 2 2
94 90 89 95 87 78 76 83 79 65 44 28 28 16 12 13 12 11 10 8 7 7 5 4 5 5 5 5 5 4 3 3 4 4 3 3 3 3 3 3 2 2 2
99 94 90 85 88 93 90 67 49 31 28 25 17 13 14 13 10 10 8 7 7 6 5 5 6 5 5 5 4 4 4 4 4 4 3 3 3 3 3 3 3 3 2
95 84 91 99 95 81 64 43 33 27 29 17 12 12 11 10 9 9 7 7 7 5 5 6 5 5 5 5 4 4 4 4 4 3 3 3 4 4 4 4 4 3 2
84 86 86 72 74 64 46 37 37 20 10 11 12 13 11 9 9 8 8 8 6 5 5 6 5 5 4 4 4 4 4 4 4 3 3 3 4 4 4 4 3 3 3
80 82 79 79 53 35 28 22 10 10 11 13 14 13 10 9 9 8 8 8 5 5 6 6 5 5 4 4 5 5 5 4 3 3 3 3 5 5 4 4 3 3 2
74 72 60 61 44 34 22 15 14 13 14 15 16 13 10 10 8 8 9 7 6 6 6 6 5 4 4 5 6 6 5 4 3 3 3 3 5 4 4 3 3 2 2
78 63 44 37 43 38 32 24 19 18 16 17 14 12 9 9 9 9 8 6 6 6 6 6 5 4 4 6 6 6 5 4 4 3 3 3 4 4 4 3 3 2 3
64 54 58 55 40 27 25 26 27 18 16 14 13 10 9 9 9 9 6 6 6 6 6 6 5 5 5 7 7 6 5 4 4 3 3 3 4 4 4 4 3 2 3
63 54 46 40 40 32 21 15 13 14 14 12 11 10 9 9 9 7 5 6 6 6 6 6 5 5 6 8 8 5 5 4 4 4 3 3 4 4 4 4 3 3 3
46 39 34 35 24 17 15 15 15 13 11 10 10 9 9 9 8 5 5 6 6 6 6 5 4 5 8 10 9 6 5 4 4 4 4 4 4 4 4 4 4 3 4
42 31 19 14 13 13 13 13 11 10 10 10 10 8 9 8 6 5 6 6 6 5 5 5 4 6 8 10 9 7 5 4 4 4 4 4 4 4 4 4 4 4 4
32 22 13 12 12 12 10 9 10 10 10 10 9 8 7 6 5 5 6 6 5 5 5 5 4 6 8 10 9 8 6 5 4 5 4 4 4 4 4 5 5 4 4
15 12 11 10 10 10 9 9 9 8 8 9 7 6 5 5 6 6 6 6 5 5 5 4 5 6 8 9 9 8 7 6 5 5 5 4 4 4 5 5 5 5 4
11 11 10 9 9 10 9 8 8 8 7 6 5 5 5 6 5 6 6 5 5 4 5 5 5 6 7 8 8 8 7 6 5 5 5 5 4 4 5 5 5 5 5
9 8 8 9 10 9 7 8 8 6 4 5 5 5 6 6 6 6 6 5 5 4 4 5 5 6 7 8 8 7 6 6 6 6 5 5 5 5 5 5 5 5 6
9 9 8 8 8 8 7 6 5 5 5 5 6 6 6 6 6 6 5 6 6 5 4 5 6 6 7 8 7 7 6 5 5 6 6 5 5 5 5 5 6 5 5
9 9 8 8 8 6 5 5 6 6 6 6 6 6 6 6 6 5 6 7 6 5 4 6 7 7 6 7 7 6 5 5 5 5 6 6 5 5 5 5 5 6 6
7 7 6 5 5 4 6 7 6 6 6 6 6 5 5 5 5 5 6 8 7 6 5 5 6 6 6 6 6 5 5 5 5 5 5 6 6 5 5 5 5 5 6
5 4 4 4 5 6 6 6 6 5 5 5 5 5 5 4 5 6 7 8 8 7 6 5 5 5 5 5 5 5 4 4 4 4 5 5 5 5 5 5 5 5 5
4 4 5 6 6 5 4 4 4 4 4 5 5 5 5 5 5 6 6 7 8 8 7 5 5 5 5 5 4 4 4 4 4 4 5 5 5 5 5 5 4 4 4

GFSGL_250_rhum_012.txt.gz
RH
64 61 62 68 72 76 83 80 81 86 79 78 87 84 64 59 64 55 42 33 19 11 9 9 10 9 8 6 5 4 4 4 4 3 3 3 3 3 3 3 3 3 3
69 65 69 67 78 81 79 78 77 75 78 94 88 70 64 65 56 41 28 20 14 11 11 11 10 8 7 5 4 5 4 3 4 4 3 3 3 3 3 3 3 2 3
69 64 71 79 84 80 78 73 70 82 91 74 69 66 68 61 37 29 22 16 14 13 11 10 8 7 5 5 5 4 3 4 3 4 4 4 3 3 2 2 2 2 2
63 66 71 69 78 78 72 76 78 78 74 63 64 68 47 34 26 21 22 16 14 11 9 8 6 6 5 5 4 3 4 4 3 3 3 3 3 2 2 2 2 2 2
69 68 67 73 79 77 81 83 74 65 59 68 58 40 39 29 24 23 21 13 10 8 8 7 6 6 6 4 4 4 4 4 4 4 3 3 2 2 2 2 3 2 2
70 70 75 82 86 93 91 72 60 58 68 51 36 34 22 23 17 14 11 10 8 8 8 7 6 7 4 4 4 4 4 4 3 3 3 3 2 3 3 2 2 2 2
70 70 84 90 95 95 78 63 54 62 64 44 33 27 27 24 15 13 11 9 9 9 8 7 7 6 4 4 5 5 4 4 3 4 3 3 3 3 3 2 2 2 2
70 84 88 91 89 71 64 63 70 64 43 33 25 24 21 17 12 12 11 10 10 9 8 8 7 5 5 5 5 5 4 4 4 4 4 4 3 3 3 2 3 3 3
82 89 93 80 67 66 68 58 50 37 36 42 31 20 13 12 14 13 14 10 9 10 8 9 6 5 5 6 6 4 4 4 5 4 4 4 3 3 3 3 3 3 4
94 92 76 69 64 55 58 47 40 39 36 26 20 16 13 14 15 12 10 10 11 9 8 8 5 5 5 6 6 5 4 4 5 4 4 4 3 3 3 4 4 4 4
90 76 68 62 64 73 57 41 48 41 22 18 18 15 14 15 12 10 10 12 10 8 8 6 5 6 6 6 6 5 4 5 5 5 4 4 3 3 3 4 5 4 4
73 70 65 65 68 61 52 42 42 32 26 17 15 14 14 14 14 12 10 10 9 8 7 5 5 6 6 6 6 5 5 6 6 5 4 4 3 3 3 4 4 4 3
72 66 69 67 47 39 39 36 31 21 12 12 13 11 10 11 12 12 10 9 9 7 6 5 6 5 5 6 6 4 6 8 6 5 5 4 3 3 3 4 4 4 3
71 63 59 46 39 34 29 23 15 13 13 12 11 11 10 10 9 9 10 9 7 5 5 5 6 6 5 5 5 4 7 8 6 4 5 4 4 3 3 4 4 4 3
67 64 44 35 31 20 16 14 14 12 10 9 9 8 9 8 8 7 8 8 6 5 5 6 6 5 5 5 4 5 7 8 6 5 4 4 4 3 3 4 4 4 3
57 40 33 31 24 24 20 14 11 10 9 8 8 9 8 8 8 6 5 5 5 6 6 6 6 5 5 5 4 5 7 7 6 5 4 4 4 4 3 4 4 4 3
36 31 31 27 20 14 13 12 11 10 10 10 9 8 8 7 5 5 5 5 6 6 6 7 6 5 4 5 5 5 6 7 6 5 4 4 4 4 3 4 4 4 4
31 27 21 17 13 12 10 10 10 11 11 10 9 8 6 5 5 5 6 6 6 6 7 6 5 5 4 4 5 6 7 7 7 6 5 4 5 4 4 4 4 5 4
24 21 16 12 11 9 10 10 10 9 8 8 7 5 5 6 6 6 6 6 6 7 7 6 5 6 4 4 5 6 7 8 7 6 5 5 5 5 4 4 4 5 5
17 14 12 12 10 10 10 10 8 8 6 5 5 6 6 7 7 6 6 6 6 6 6 5 7 6 4 4 5 6 6 7 7 6 5 5 5 5 4 4 4 5 5
10 10 8 8 9 10 8 8 7 6 5 5 6 7 7 7 7 6 5 5 5 5 5 6 8 7 5 5 6 6 6 7 6 6 5 5 5 5 5 4 4 4 5
8 7 7 8 7 7 6 5 5 5 6 7 7 7 5 6 6 5 5 5 5 5 6 7 8 9 6 5 6 6 6 6 6 5 5 5 5 5 5 5 4 5 5
7 7 6 6 6 4 4 4 5 6 5 6 5 5 5 5 5 5 5 5 6 6 6 8 8 9 8 6 6 6 6 6 5 5 5 5 5 5 5 5 5 4 4
6 6 6 5 4 4 5 6 5 5 4 4 5 5 5 5 5 5 5 5 5 6 7 7 8 9 9 7 6 6 6 5 5 5 5 4 5 5 5 5 5 5 4
6 5 4 4 4 5 5 5 4 4 4 4 5 4 5 5 5 5 5 5 6 6 6 7 7 8 9 8 6 6 5 5 5 4 4 4 4 5 5 5 5 5 5
4 3 4 4 5 4 4 4 4 4 4 4 4 4 4 4 4 5 5 5 5 6 6 6 7 7 8 7 6 6 5 5 5 4 4 4 4 4 4 5 5 5 5

GFSGL_250_rhum_015.txt.gz
RH
68 66 64 58 50 52 55 62 62 59 65 72 74 87 92 82 70 59 55 61 48 34 28 21 15 12 10 10 8 7 6 5 5 5 4 3 3 3 3 3 3 3 3
79 74 61 47 51 51 56 64 61 61 74 79 92 78 70 62 57 56 57 42 35 27 21 14 13 11 10 8 7 6 5 4 5 5 3 3 3 4 3 3 2 3 3
61 58 48 48 53 61 67 66 69 75 86 82 72 68 58 57 55 41 38 33 32 26 18 12 11 10 9 7 6 5 4 5 4 4 4 4 3 3 3 3 3 3 2
52 50 51 55 65 68 70 73 77 87 81 72 65 58 56 53 43 32 26 23 20 20 13 10 10 10 9 7 6 5 6 5 4 4 4 3 3 2 3 3 2 2 2
53 53 53 68 70 73 76 75 81 79 71 66 59 53 44 35 26 22 19 17 15 12 11 10 9 9 9 7 6 6 5 4 4 4 4 3 3 3 3 3 2 2 2
60 58 70 69 72 73 76 78 79 73 66 57 49 46 34 27 26 24 19 14 12 11 10 9 10 8 7 7 6 6 4 4 4 5 4 3 3 3 3 3 3 2 2
61 69 72 81 81 85 84 84 72 65 60 58 55 44 38 33 36 28 16 14 12 10 9 10 9 7 7 7 7 5 4 5 5 5 3 3 3 4 4 3 3 3 2
71 76 76 88 92 93 84 70 64 66 56 51 40 35 30 26 20 15 14 12 10 9 9 8 8 7 7 7 5 4 4 5 5 5 4 4 4 5 4 3 3 3 2
72 74 89 89 84 75 66 71 73 59 52 42 32 28 24 19 14 12 10 10 9 9 8 8 7 7 7 6 4 4 5 5 5 4 4 4 5 5 4 3 3 2 2
71 75 79 75 71 70 77 75 62 53 41 29 27 23 18 15 12 10 10 11 10 9 8 8 7 6 6 4 4 5 5 5 4 4 4 5 6 4 4 3 3 3 2
67 69 73 74 78 92 86 63 53 43 32 31 22 16 14 12 10 9 10 10 9 8 8 7 6 5 4 4 5 5 5 4 5 4 4 6 5 4 4 4 3 3 3
74 75 78 90 98 85 72 62 50 45 40 31 21 15 12 11 10 10 10 9 8 7 7 5 4 4 5 5 5 6 5 4 4 4 5 6 4 4 4 3 3 3 3
82 85 92 93 93 78 65 56 46 38 31 21 14 12 10 9 9 10 10 8 7 6 5 5 5 5 5 5 6 5 4 5 4 5 6 7 4 4 4 4 3 3 4
86 94 98 96 82 69 55 45 36 26 18 14 11 8 8 9 9 9 9 8 6 5 5 6 6 5 6 6 6 5 4 4 4 5 7 7 5 4 4 4 3 3 3
94 99 99 84 70 49 41 37 27 19 13 10 8 8 8 8 8 8 7 6 6 6 6 6 6 6 6 6 5 5 4 4 4 5 6 7 5 4 4 4 3 3 4
100 88 84 70 49 38 31 22 16 14 10 9 8 8 7 6 6 5 5 6 7 7 7 7 6 6 6 6 5 5 4 4 4 5 6 7 6 4 4 4 4 3 4
84 76 67 51 36 27 20 16 14 11 10 9 8 7 6 5 5 5 6 7 7 8 8 7 7 6 6 6 5 6 5 4 4 5 6 7 6 4 4 4 4 4 4
76 59 44 32 22 17 14 11 9 8 8 9 8 7 4 5 5 6 6 7 6 6 6 6 6 6 6 6 7 7 5 4 5 6 6 7 6 4 4 4 4 4 4
51 42 29 20 16 12 10 8 8 8 7 7 6 4 4 6 6 6 6 6 6 5 6 6 6 5 5 6 8 8 6 5 6 6 6 6 6 5 4 5 4 4 4
36 25 18 16 12 10 8 7 7 7 6 5 5 5 6 6 6 5 5 5 6 6 6 6 6 6 6 7 8 9 6 5 7 6 6 6 5 5 4 5 5 4 4
24 18 14 11 8 7 7 7 7 5 4 4 6 6 5 5 5 6 6 5 6 6 6 6 6 6 6 8 8 9 7 6 6 6 6 6 5 4 4 4 5 5 4
15 11 9 7 7 7 6 6 4 4 5 5 6 5 4 4 5 5 6 6 6 6 6 6 6 6 6 7 9 10 9 6 6 6 5 5 5 5 5 4 5 5 5
9 8 7 6 6 6 4 4 4 5 5 4 4 5 4 4 5 5 5 5 6 6 6 6 6 6 6 7 8 9 10 7 6 6 5 5 5 5 4 4 5 5 5
7 6 6 6 5 3 3 4 4 4 4 4 3 4 4 4 4 4 4 4 4 4 5 6 6 6 6 6 7 8 8 7 6 6 5 5 5 4 4 4 5 5 5
6 6 5 4 3 3 4 4 4 4 4 4 4 4 4 3 3 3 3 3 3 3 4 4 5 6 6 6 6 7 8 7 6 6 5 5 5 4 4 5 5 5 5
4 4 3 3 3 4 4 4 3 3 3 4 4 3 3 3 2 2 3 3 3 3 3 4 4 5 5 5 6 6 6 6 6 6 5 5 5 4 4 5 5 5 5

GFSGL_250_rhum_018.txt.gz
RH
68 62 55 53 52 52 64 65 57 62 62 58 67 67 69 84 81 75 68 56 52 46 39 31 26 24 15 11 9 8 8 8 7 7 5 4 4 4 4 3 3 3 3
44 46 57 61 67 73 78 60 65 58 57 63 70 76 78 75 73 66 58 56 45 34 32 27 23 21 15 10 8 7 7 6 6 7 6 5 5 4 3 3 3 3 3
67 79 82 80 77 71 64 64 58 59 61 71 73 76 76 71 68 62 53 39 34 33 31 27 22 16 12 8 7 6 6 6 6 6 6 5 4 3 3 3 4 3 2
84 81 75 70 56 58 61 61 67 63 67 73 79 77 76 80 69 49 38 38 35 29 23 18 16 13 9 8 7 6 6 6 6 5 5 4 4 4 4 4 3 2 2
56 54 53 54 61 64 67 69 69 71 76 79 78 78 87 66 59 50 38 30 26 21 17 15 12 9 8 8 7 6 6 7 6 6 4 4 4 4 4 4 3 2 2
48 56 69 80 73 68 68 71 76 77 75 74 77 88 78 72 48 39 30 21 17 14 14 12 9 8 8 9 8 6 7 6 6 4 4 4 4 5 4 3 3 3 3
72 83 90 82 71 67 72 77 80 78 72 80 94 87 81 56 43 36 28 19 14 12 10 9 9 10 9 8 7 6 6 5 4 4 4 4 4 4 4 3 3 4 4
72 83 83 82 70 66 81 80 76 69 80 94 95 80 61 43 35 25 16 14 11 9 9 9 10 9 8 7 6 5 4 4 4 4 5 5 4 4 3 3 3 3 4
88 89 86 80 71 75 76 73 72 80 89 94 78 67 46 36 27 17 12 10 9 8 9 9 8 8 6 5 4 4 4 4 4 5 5 5 4 4 3 4 4 3 3
90 89 76 68 66 77 68 67 86 91 97 80 70 56 40 28 17 12 10 8 8 8 9 8 7 6 5 4 4 4 4 4 4 5 5 4 4 3 4 5 4 3 3
85 76 65 66 78 72 78 89 90 97 81 71 55 44 33 20 14 10 8 8 8 8 7 7 5 4 5 5 5 5 5 5 5 5 4 4 4 4 6 6 4 3 4
83 69 69 77 74 77 86 95 100 81 82 62 48 37 25 17 12 9 8 8 8 6 6 5 5 6 6 6 5 6 6 5 5 5 4 4 4 5 6 5 4 3 3
72 71 77 79 83 92 98 97 87 89 64 49 39 27 18 12 9 8 8 8 7 5 4 5 6 7 6 6 6 6 6 6 6 5 4 3 4 5 6 5 4 3 3
74 78 85 84 85 96 100 92 82 70 55 38 25 15 12 9 8 8 8 8 6 5 5 6 7 6 6 6 6 6 6 6 5 5 4 4 4 5 6 5 4 3 3
78 82 78 85 100 97 85 80 67 52 36 27 16 10 8 8 8 8 7 5 5 6 7 7 6 5 5 5 5 5 6 6 5 5 4 4 4 5 6 6 4 3 3
86 76 84 99 88 82 74 68 50 33 25 16 11 8 8 7 7 6 5 5 6 7 7 6 5 5 5 5 5 5 5 5 6 6 4 4 5 6 6 6 4 3 3
76 85 90 79 74 68 58 42 28 24 14 10 8 8 7 7 5 4 4 6 6 6 6 6 6 6 5 6 5 5 6 6 7 6 5 5 5 6 6 5 4 4 4
83 77 69 68 64 49 32 22 15 11 10 10 8 7 6 4 4 5 5 6 6 5 6 6 6 6 6 6 6 6 6 7 8 8 5 6 6 6 6 5 5 4 4
63 62 60 55 41 26 19 14 10 8 7 7 8 7 4 3 4 5 4 5 5 5 6 6 6 6 6 6 6 6 6 7 8 8 6 5 6 6 6 5 5 4 4
56 45 40 30 20 15 12 9 7 6 6 6 6 4 4 5 6 4 4 4 4 5 5 6 6 6 6 6 6 6 6 7 8 9 6 5 5 5 5 4 4 4 5
43 39 27 18 13 10 8 6 5 5 4 4 3 4 5 5 5 4 4 4 4 4 5 5 5 5 6 6 6 6 6 7 8 9 8 6 5 5 5 4 4 4 5
27 20 15 11 8 6 5 4 4 3 3 4 4 4 4 4 4 4 4 4 4 4 3 3 4 4 4 5 6 6 6 6 7 8 8 6 6 5 5 4 4 4 5
17 12 10 7 5 4 4 3 3 3 4 4 4 4 3 3 3 4 4 3 3 3 3 3 3 4 4 4 5 6 6 6 6 7 8 6 6 5 5 4 4 4 4
10 8 6 4 4 3 3 3 4 4 4 4 3 3 3 3 3 3 3 3 3 3 3 3 3 4 4 4 4 5 6 6 6 7 7 7 6 5 5 4 4 4 4
7 5 4 3 3 3 4 4 4 3 3 3 3 3 3 3 3 3 3 2 2 3 3 3 3 3 4 4 4 4 4 5 6 6 7 6 6 6 5 5 4 4 4
4 3 3 3 4 4 4 3 3 3 3 3 3 3 3 3 2 2 2 2 2 2 2 2 3 3 3 4 4 4 4 4 5 6 6 6 6 6 5 4 5 4 4

GFSGL_250_rhum_021.txt.gz
RH
49 66 63 62 60 59 54 54 63 62 64 56 59 55 56 67 73 75 79 80 79 75 81 69 57 42 33 25 18 15 12 9 7 8 7 7 7 6 5 4 4 4 4
45 54 50 50 50 53 63 67 68 65 60 61 65 58 65 77 77 79 74 72 85 94 78 63 46 32 21 14 12 9 8 6 6 7 7 6 5 5 5 4 4 4 3
64 71 70 70 75 76 71 66 62 67 64 71 68 66 81 80 80 74 75 95 83 69 55 42 34 22 15 12 9 7 7 7 7 6 6 5 5 5 4 4 4 3 3
100 93 77 66 68 67 60 58 67 71 70 68 67 84 79 78 75 77 98 89 74 55 42 33 22 14 11 9 7 7 7 7 6 5 5 5 4 4 4 3 3 3 3
68 64 56 58 60 60 59 61 69 73 74 68 82 81 77 79 82 89 88 73 61 42 30 20 14 12 9 8 7 7 7 6 6 5 4 4 3 3 3 3 3 3 4
68 58 63 58 56 57 63 69 76 79 71 72 77 88 94 86 88 88 79 62 43 31 20 16 12 9 8 7 7 6 6 6 4 4 3 3 3 4 4 4 4 4 3
58 57 55 60 68 72 75 78 79 76 76 92 87 80 81 80 87 76 64 58 35 24 19 12 9 8 8 7 6 6 5 4 4 4 4 4 3 4 4 4 4 4 4
63 65 74 78 78 80 78 79 82 86 85 88 87 83 89 91 80 70 65 37 32 24 13 9 9 8 8 7 6 4 4 5 5 5 5 5 4 4 4 4 4 4 4
78 78 82 84 84 85 80 80 81 82 82 88 83 91 92 80 75 66 44 38 25 16 10 9 9 8 8 6 5 5 5 6 6 6 6 5 5 5 4 4 4 3 3
80 87 88 89 88 85 92 88 90 88 86 81 86 85 86 73 63 58 39 28 19 11 9 8 8 8 6 5 5 6 6 6 6 6 6 6 5 5 4 3 3 3 4
95 94 92 91 88 87 87 89 78 81 84 88 92 86 72 72 68 43 28 19 11 9 8 8 8 7 5 5 7 7 6 6 6 6 6 6 6 5 4 3 3 4 4
97 97 94 89 86 84 82 77 79 82 82 83 78 82 81 70 43 27 17 12 9 9 8 8 6 5 6 7 7 6 6 6 6 5 5 5 5 4 4 3 4 4 4
100 92 86 81 76 75 75 77 79 78 76 77 80 84 64 38 26 16 11 8 8 8 8 7 5 6 8 7 6 6 6 6 5 5 5 4 4 4 4 4 4 5 4
87 81 74 70 73 76 78 77 79 80 74 69 66 48 33 22 14 10 8 7 7 7 6 5 5 7 7 6 5 6 6 6 6 5 5 5 6 6 4 4 4 5 5
74 70 70 76 74 78 77 77 74 67 57 55 44 28 18 12 9 6 6 6 7 6 5 5 6 6 6 5 5 5 6 6 6 6 6 6 7 6 4 4 5 5 5
72 73 75 70 72 75 73 68 60 54 50 37 25 16 11 8 6 5 5 6 5 4 5 6 6 5 5 5 5 5 6 6 6 6 6 7 8 6 4 5 5 5 4
77 71 63 70 74 73 63 50 48 47 40 27 15 10 8 5 4 4 4 4 5 4 5 6 5 5 5 5 5 5 6 7 6 6 6 7 8 7 5 5 5 5 4
65 64 75 78 75 64 52 47 37 28 20 17 14 9 6 4 3 3 4 4 6 5 5 5 5 4 5 5 5 5 5 6 6 6 6 6 8 8 5 6 6 5 4
70 77 76 70 58 44 39 32 24 16 12 9 7 6 4 4 4 4 5 4 5 5 4 4 4 4 5 5 4 4 4 5 6 6 6 6 8 8 6 6 5 5 4
73 68 59 54 41 37 28 20 14 10 7 6 4 4 4 4 5 5 5 4 4 4 4 4 4 4 4 4 3 3 3 4 6 6 6 6 7 8 6 6 5 5 4
70 68 56 35 29 26 18 11 8 6 5 4 4 4 4 4 5 4 4 4 4 3 4 4 4 4 3 3 3 3 3 4 5 6 6 6 7 8 7 6 5 5 4
64 42 32 27 22 15 9 7 6 4 4 4 5 4 4 4 4 4 4 4 3 3 3 4 4 3 3 3 3 3 3 3 4 6 6 6 7 8 7 6 5 4 4
38 30 24 18 12 8 6 5 4 3 4 4 4 4 4 3 3 3 3 3 3 3 3 3 3 3 3 3 3 3 3 3 4 5 6 6 6 7 7 6 5 4 4
27 22 16 10 8 6 4 3 4 4 4 4 3 3 3 3 3 3 3 3 3 3 3 2 2 2 2 3 3 3 3 3 4 4 5 6 6 7 7 6 5 4 4
19 13 9 6 5 3 3 4 4 4 3 3 3 2 2 2 3 3 2 2 2 2 2 2 2 2 2 2 3 3 3 3 4 4 4 5 5 6 6 6 6 5 4
10 7 5 4 3 3 4 4 3 3 3 2 2 2 2 2 2 2 2 2 2 2 2 2 2 2 2 2 3 3 3 3 3 4 4 5 5 6 6 6 6 5 4

GFSGL_250_rhum_024.txt.gz
RH
86 94 100 98 75 68 65 61 58 58 52 50 52 55 62 61 58 58 54 61 70 77 79 68 66 64 66 57 44 30 20 14 9 7 6 6 5 5 5 4 4 4 4
100 100 98 84 75 70 65 58 55 50 54 57 66 71 68 61 60 61 68 80 83 80 73 74 76 73 61 47 29 22 14 9 7 7 7 6 5 4 4 4 3 3 3
92 78 59 62 74 67 61 58 53 61 64 76 75 72 71 70 72 78 83 79 80 76 74 68 70 64 47 30 22 13 9 8 7 6 6 5 4 3 3 3 3 3 2
65 75 76 78 77 71 67 64 68 68 76 79 79 77 79 80 82 85 79 82 79 77 73 68 64 46 31 20 14 10 8 7 7 6 5 4 3 3 3 3 3 3 3
72 77 79 81 81 78 81 76 73 80 85 83 77 79 88 87 84 83 84 89 86 83 75 67 49 33 21 14 11 8 8 8 7 5 3 4 4 4 4 4 4 3 3
96 97 96 92 88 87 77 72 76 75 76 75 85 81 86 77 85 87 92 92 92 80 61 46 35 23 17 12 9 8 8 7 6 4 4 4 4 4 4 4 5 4 3
96 88 82 80 79 70 67 70 75 76 78 85 91 90 90 99 91 91 92 93 75 56 47 35 24 18 13 10 8 7 7 6 5 5 5 5 4 4 4 4 4 4 4
71 70 76 73 64 66 73 83 86 84 89 96 88 86 95 97 94 93 87 71 57 52 36 27 19 14 10 7 6 7 6 4 5 6 6 6 5 4 4 4 4 4 5
91 86 76 76 77 82 90 94 89 98 100 92 95 93 92 96 91 86 74 60 49 38 32 23 16 10 7 6 6 6 4 4 6 6 6 5 5 4 4 4 5 5 4
76 74 74 79 87 94 96 91 98 98 97 100 92 89 93 95 90 79 54 44 40 34 26 16 10 7 6 5 6 5 4 5 6 6 6 5 5 5 5 4 4 4 4
67 76 81 95 95 95 94 99 97 100 96 90 91 94 97 89 77 58 48 40 34 26 17 11 7 6 5 4 5 5 5 6 6 6 6 6 5 5 5 5 4 4 4
83 85 92 93 96 98 100 98 100 91 87 90 97 97 89 74 58 56 44 33 24 16 11 7 6 5 4 4 5 5 6 6 5 5 6 6 6 5 5 5 5 5 3
95 100 100 100 100 100 100 100 88 81 86 93 85 87 80 66 56 42 30 23 16 10 7 6 5 4 4 4 5 6 6 6 5 6 6 6 6 5 4 5 6 5 4
100 100 100 100 96 92 89 80 77 85 84 80 84 75 62 53 43 29 21 15 10 7 5 5 4 4 4 5 6 6 6 5 5 6 6 7 6 5 5 5 7 6 4
100 98 89 83 83 80 77 75 82 80 79 80 72 54 42 36 34 24 14 9 7 5 4 5 5 4 5 6 6 5 5 5 5 5 6 6 6 6 5 6 7 7 4
96 83 77 80 82 79 79 80 78 78 77 65 43 31 25 19 18 13 9 6 4 4 5 6 6 5 5 5 5 5 5 5 5 5 6 6 6 6 5 6 7 8 5
84 80 84 85 82 78 74 73 76 88 73 60 52 37 25 16 11 7 5 4 4 5 5 5 6 5 4 4 4 4 5 5 5 4 4 5 6 6 5 6 7 7 5
78 84 86 80 78 76 74 73 64 46 37 40 34 24 16 12 8 6 4 4 5 6 5 4 4 5 5 4 4 5 5 4 4 4 4 4 6 6 6 6 7 7 5
83 83 76 77 80 72 66 51 38 32 24 19 16 13 9 7 4 4 4 5 5 5 4 4 4 4 4 4 4 4 4 4 4 3 4 4 5 6 6 6 7 8 6
78 75 77 75 66 58 43 36 31 23 18 12 9 7 5 4 4 5 5 4 4 4 4 4 4 3 4 4 4 4 4 3 3 3 4 4 5 6 6 6 7 8 6
77 73 67 62 49 36 35 29 22 17 12 8 6 4 3 4 4 4 4 4 4 3 3 3 3 3 4 4 4 4 3 3 3 3 4 4 4 6 6 6 6 8 6
74 64 55 40 38 36 26 20 15 10 7 5 3 4 4 4 3 3 3 3 3 3 3 3 3 3 3 3 3 3 3 3 3 3 3 4 4 5 6 6 6 7 6
56 44 38 40 33 24 18 12 8 6 4 3 4 4 4 3 2 2 2 2 2 3 3 3 2 2 2 2 2 2 2 2 3 3 3 4 4 4 6 6 6 7 7
40 41 36 29 24 16 10 7 5 3 3 4 4 3 2 2 2 2 2 2 2 2 2 2 2 2 2 2 2 2 2 2 2 3 3 4 4 4 5 6 6 6 7
35 32 28 21 11 7 6 4 3 3 4 3 3 2 2 2 2 2 2 2 2 2 2 2 2 2 2 2 2 2 2 2 2 3 3 4 4 4 4 5 6 6 6
30 25 15 10 6 5 4 3 4 4 3 2 2 2 2 2 2 2 2 2 2 2 2 2 2 2 2 2 2 2 2 2 3 3 3 4 4 4 4 5 6 6 6

GFSGL_250_rhum_027.txt.gz
RH
72 91 100 100 100 100 100 84 100 100 91 75 65 58 57 57 60 64 57 58 59 58 60 62 69 68 66 64 58 52 40 29 25 20 12 8 6 6 5 4 4 3 3
100 89 100 100 100 100 100 100 86 70 64 61 62 66 69 67 71 65 60 68 67 63 66 61 58 61 66 67 61 44 31 27 20 12 8 6 5 5 5 4 3 3 3
100 100 100 98 99 91 78 66 63 62 70 71 75 76 76 74 69 74 72 69 77 75 65 68 70 73 74 69 51 35 27 21 13 8 6 6 5 5 4 3 3 4 4
100 100 94 82 84 70 62 68 75 76 80 79 80 81 79 72 75 79 78 76 76 77 76 75 77 80 74 60 38 28 24 14 9 7 6 5 5 4 3 4 4 4 4
80 78 79 75 68 72 78 88 87 82 85 81 81 80 73 74 82 82 80 77 82 86 83 79 89 86 70 46 31 24 17 11 7 6 5 5 4 4 4 4 4 4 3
86 84 78 77 78 82 92 100 97 94 79 78 82 74 74 72 82 80 86 90 93 83 84 95 92 83 54 31 25 20 12 8 6 5 4 4 4 4 5 4 4 4 4
81 81 83 82 85 99 100 99 92 79 76 77 77 76 80 89 90 91 91 88 82 87 98 93 84 60 31 23 21 15 9 6 5 4 4 4 4 5 4 4 4 4 4
81 90 86 92 100 100 94 81 79 77 77 75 79 84 91 99 93 95 88 82 88 98 95 85 58 33 23 21 18 10 6 5 5 4 4 4 5 5 5 4 4 4 4
96 89 95 100 100 95 88 82 80 79 81 85 87 96 100 98 97 94 88 90 94 97 87 65 35 25 21 18 12 7 5 4 5 4 5 5 6 5 5 5 5 4 4
83 93 100 97 90 83 84 83 80 87 88 92 100 100 100 100 91 90 91 94 93 80 65 40 30 23 17 12 9 6 4 5 6 5 6 6 5 5 5 5 5 5 4
86 87 76 77 82 84 80 82 88 89 96 98 99 99 99 98 100 94 90 88 71 61 41 30 24 18 12 9 7 5 5 6 7 5 6 6 5 5 5 5 6 5 5
69 72 85 84 78 78 86 87 94 100 100 100 99 100 100 98 93 91 88 72 56 38 29 24 18 12 9 6 5 5 6 7 7 5 6 5 4 5 5 5 6 6 5
86 85 76 79 89 96 96 100 100 98 98 94 94 100 96 89 90 89 72 50 33 25 22 15 11 9 6 5 5 6 6 6 6 5 5 5 4 5 5 5 6 6 6
73 78 87 98 100 100 100 97 91 95 91 94 100 92 86 88 85 66 45 34 26 17 12 9 8 6 5 5 6 6 6 6 6 5 5 4 5 5 5 5 5 6 6
95 99 100 100 100 100 93 88 90 92 97 99 88 81 72 68 49 32 26 21 17 12 8 6 5 5 5 5 5 5 5 6 6 5 5 5 5 5 4 4 5 5 5
100 100 100 100 95 89 94 95 99 98 91 82 72 60 47 30 25 21 14 10 8 6 5 4 5 5 5 5 5 5 5 4 5 5 5 5 5 4 4 4 4 5 5
93 79 75 78 78 82 95 100 99 95 86 74 57 38 30 28 21 13 10 8 6 4 4 5 5 5 4 4 5 5 4 4 4 4 4 4 4 4 4 4 4 6 5
77 76 75 78 88 94 90 86 78 68 57 43 37 32 30 22 13 9 6 5 4 4 4 4 4 4 4 4 4 3 4 4 4 4 4 4 4 3 4 4 4 6 6
76 83 87 88 85 78 68 58 49 41 34 31 29 26 18 14 9 6 4 4 4 5 4 3 3 3 3 3 3 3 4 4 4 4 4 4 3 3 4 3 4 5 6
79 78 76 71 66 54 45 44 39 34 31 27 21 13 12 9 7 4 4 4 4 3 3 3 3 3 3 3 3 3 4 4 3 4 3 3 3 3 4 3 4 5 5
72 68 62 56 47 47 47 40 37 31 27 19 13 9 6 5 4 5 5 4 3 2 2 3 3 2 3 3 3 3 3 3 3 3 3 3 3 3 3 4 4 5 5
65 55 49 51 49 44 44 39 32 26 18 12 9 6 4 4 4 4 3 2 2 3 3 3 2 2 2 2 2 2 2 2 2 3 3 3 3 3 3 4 4 5 6
60 53 53 48 44 43 36 31 23 16 11 7 5 4 4 4 4 3 2 2 2 3 3 2 2 2 2 2 2 2 2 2 2 2 3 3 2 3 3 4 4 4 6
63 57 49 45 40 35 28 20 14 9 6 4 4 4 4 3 3 2 3 2 2 2 2 2 2 2 2 2 2 2 2 2 2 2 2 2 2 3 4 4 4 4 5
62 55 47 38 31 25 19 11 8 6 4 4 4 4 3 2 3 3 2 2 2 2 2 2 2 2 2 2 2 2 2 2 2 2 2 2 3 3 4 4 4 4 4
49 40 32 25 19 14 9 7 5 4 4 4 3 2 2 3 3 2 2 2 2 2 2 2 2 2 2 2 2 2 2 2 2 2 2 3 3 3 4 4 4 4 4

GFSGL_250_rhum_030.txt.gz
RH
70 69 78 74 82 92 100 100 100 100 100 100 100 96 90 82 86 74 71 78 74 77 77 74 69 71 68 74 73 68 68 61 57 58 40 24 20 15 8 5 4 3 4
73 76 74 79 76 100 100 100 100 100 100 100 94 86 84 93 92 91 87 88 80 77 73 69 69 73 72 72 74 72 66 62 60 48 30 20 15 9 6 4 3 3 3
80 72 73 99 100 100 100 100 98 93 91 80 74 72 79 96 84 82 87 89 95 96 89 79 85 78 75 81 74 73 67 66 53 38 24 18 11 7 5 4 3 3 3
78 77 90 91 99 99 100 97 90 80 72 63 76 87 98 90 92 98 94 93 93 89 82 86 83 83 89 78 74 75 72 63 41 26 20 15 9 6 4 4 4 4 4
84 84 78 82 90 94 87 82 79 70 67 89 96 95 94 91 100 95 94 85 72 75 84 84 80 89 82 79 80 73 66 50 30 22 17 10 7 4 4 4 4 4 4
92 92 92 93 89 84 81 80 76 77 95 99 100 98 100 100 100 94 80 77 83 87 86 89 92 88 87 82 72 67 57 35 26 17 12 8 6 4 4 5 5 4 5
96 97 99 97 92 88 82 80 95 100 100 100 99 100 100 99 92 83 85 84 90 90 92 94 90 92 85 73 66 57 40 30 21 10 10 6 5 5 5 5 5 5 4
97 95 89 86 90 92 92 100 100 97 93 98 100 100 96 87 83 79 79 89 94 96 96 94 94 89 77 68 52 42 32 22 12 10 8 5 5 6 6 5 5 5 4
88 93 96 100 98 99 100 100 95 90 97 100 98 91 85 82 75 77 86 92 100 100 89 98 89 75 64 56 40 32 22 12 7 8 6 6 6 6 5 5 5 5 4
98 97 93 94 98 100 90 84 91 94 92 92 87 84 80 79 90 92 97 100 95 90 97 90 82 71 45 36 30 23 13 7 6 6 5 6 6 6 5 5 5 5 4
92 93 94 88 79 84 90 86 87 85 76 76 83 96 100 100 96 93 95 91 88 93 86 80 61 42 35 27 18 12 8 5 4 5 6 6 6 6 5 6 5 5 4
87 82 79 82 84 85 86 83 79 84 96 100 99 90 83 87 91 91 92 84 79 68 65 49 37 32 26 15 10 7 5 4 5 6 6 5 6 5 5 6 5 5 5
88 88 84 84 92 91 83 86 94 93 85 82 82 84 88 86 88 90 89 84 70 50 35 32 28 20 13 8 6 5 5 5 6 6 5 5 6 5 5 5 5 5 5
95 96 89 77 74 83 85 84 81 81 82 80 81 84 92 91 84 76 66 57 46 40 38 32 20 11 8 6 4 5 5 5 5 5 5 5 5 4 5 5 5 5 4
78 75 74 79 88 90 90 85 88 93 86 85 90 85 80 70 55 49 42 38 37 36 26 17 11 8 5 5 5 5 4 4 4 4 4 4 4 4 4 4 4 4 4
67 69 72 79 77 82 89 90 95 92 91 81 70 61 49 42 37 36 33 30 24 15 10 6 5 5 5 5 4 3 3 3 3 3 4 3 3 4 4 4 4 4 3
64 69 78 80 84 88 92 96 94 89 78 70 57 50 44 43 40 35 30 21 15 10 6 5 4 5 5 4 3 3 3 3 3 3 3 3 3 4 4 4 4 3 3
74 73 83 89 84 89 86 85 79 72 65 59 52 49 48 41 32 25 18 13 9 6 4 4 5 4 3 3 3 3 3 3 3 3 3 3 3 4 4 4 3 3 3
89 80 78 92 89 77 76 75 69 60 52 48 49 46 37 28 21 15 10 6 5 4 4 4 3 3 3 3 3 3 3 3 3 3 3 3 3 3 3 3 3 3 3
76 74 90 86 79 73 71 70 57 53 52 51 44 34 26 20 13 8 6 5 4 4 4 3 3 3 3 3 3 3 3 3 3 2 2 2 2 2 3 3 3 3 3
87 89 85 71 63 75 70 58 56 55 51 44 33 22 15 10 7 6 5 5 4 4 3 3 3 3 3 2 2 3 3 2 2 2 2 2 2 2 3 3 3 3 3
80 71 62 66 85 73 61 55 55 48 42 36 23 14 8 6 5 4 4 4 3 3 3 3 2 2 2 2 2 2 2 2 2 2 2 2 2 2 2 3 3 3 3
70 71 78 84 69 56 53 50 43 39 28 19 12 8 5 4 4 4 4 3 3 3 3 2 2 2 2 2 2 2 2 2 2 2 2 2 2 2 2 3 3 3 3
82 78 75 58 50 49 46 41 32 22 15 9 6 5 4 4 4 4 3 3 3 3 2 2 2 2 2 2 2 2 2 2 2 2 2 2 2 2 2 3 3 3 3
69 61 49 47 45 42 33 23 17 11 7 6 4 4 4 4 3 3 3 3 2 2 2 2 2 2 2 2 2 2 2 2 2 2 2 2 2 2 2 3 3 3 3
51 47 45 42 34 25 18 12 7 6 5 4 4 3 3 3 3 2 2 2 2 2 2 2 2 2 2 2 2 2 2 2 2 2 2 2 3 2 2 3 3 3 3

GFSGL_250_rhum_033.txt.gz
RH
58 42 44 57 71 81 100 100 100 100 100 100 100 100 100 100 100 99 93 89 77 81 80 93 99 95 82 80 86 73 71 73 67 75 59 55 48 43 31 26 24 16 9
62 60 58 68 72 85 92 92 100 100 100 100 100 100 100 100 91 93 85 78 79 84 96 85 94 90 93 91 76 74 80 69 71 61 64 54 47 33 24 25 18 11 7
59 64 70 74 77 77 87 84 81 97 100 100 99 93 96 87 79 78 87 84 84 86 78 87 75 78 75 64 72 76 77 75 62 56 50 44 32 27 24 19 12 8 5
81 87 80 74 98 99 88 86 88 97 97 88 84 81 78 83 84 88 90 98 99 89 88 88 92 82 81 88 77 82 71 62 59 53 44 30 28 25 19 12 9 6 4
84 78 85 86 85 100 97 93 91 88 82 84 91 91 89 91 90 99 99 100 100 100 100 93 89 92 95 86 83 70 67 63 53 43 30 24 26 22 11 8 6 4 5
75 62 69 83 90 99 100 100 98 100 100 100 95 85 96 95 99 100 100 100 100 92 94 93 94 93 83 71 69 70 68 62 58 49 31 28 24 15 9 7 5 5 6
73 49 46 62 91 100 100 100 100 100 90 79 96 99 99 100 100 99 99 97 94 95 88 84 83 75 69 68 68 70 77 64 52 39 35 32 15 10 7 5 4 5 6
46 48 52 58 58 63 69 77 78 86 99 100 100 100 100 97 96 96 85 82 84 84 78 73 70 71 78 75 67 62 49 49 53 44 32 18 10 6 5 5 5 6 5
51 61 78 90 98 99 100 100 100 97 100 100 100 96 92 95 87 82 83 86 82 76 82 81 82 80 79 74 61 53 50 49 35 30 16 10 6 5 5 6 5 6 6
81 86 90 91 97 98 95 94 100 98 95 99 100 100 92 87 84 73 75 83 91 92 94 93 86 78 68 63 57 50 46 36 20 11 7 6 5 5 6 6 5 5 5
62 68 75 78 85 93 93 97 100 99 95 85 78 79 83 80 82 91 94 87 87 96 94 85 78 67 59 52 51 44 30 18 12 6 4 4 6 6 5 5 4 5 5
84 86 89 96 100 100 98 92 82 75 72 74 75 76 80 85 84 87 89 95 89 78 78 72 61 54 49 42 32 22 14 10 6 5 5 5 4 4 4 4 4 5 4
99 100 100 100 100 93 86 72 67 67 67 71 82 92 87 79 82 99 95 84 76 71 63 59 51 41 34 26 17 11 8 5 5 5 5 4 3 3 3 3 4 4 4
100 99 96 87 82 72 66 68 77 81 83 87 94 90 84 95 99 87 78 73 65 61 55 50 41 30 19 13 9 6 5 5 5 4 3 3 3 3 4 3 4 4 4
89 78 65 58 60 73 87 93 83 86 93 96 93 91 99 92 76 73 67 61 56 48 39 33 24 15 12 8 6 5 5 5 4 3 3 3 3 3 3 3 3 4 4
64 61 60 76 89 97 92 92 94 98 98 89 86 93 82 72 68 59 58 51 42 33 25 17 12 10 7 5 4 5 4 3 3 3 3 3 3 3 3 3 4 4 4
75 77 76 91 91 90 99 100 99 98 96 89 78 72 69 58 56 53 43 34 26 20 12 10 8 6 5 5 5 4 3 3 3 3 3 3 3 3 3 3 3 3 3
83 80 87 84 93 97 97 93 94 93 89 74 70 64 63 60 53 42 34 25 17 11 8 7 5 5 5 4 3 3 3 3 3 3 3 3 3 3 3 3 3 3 3
84 76 78 86 79 81 86 89 84 74 73 51 57 60 61 58 44 36 26 16 11 8 7 5 5 4 4 3 3 3 3 3 3 3 3 3 2 2 2 2 2 2 3
93 85 73 66 73 84 77 73 67 59 53 63 61 61 54 48 38 23 14 10 8 6 5 5 4 3 3 3 3 3 2 3 3 2 2 2 2 2 2 2 2 2 2
91 88 94 98 82 75 72 64 56 63 68 64 58 52 52 36 21 12 8 7 6 4 4 4 3 3 3 3 2 2 2 2 2 2 2 2 2 2 2 2 2 2 2
100 96 94 85 78 71 63 60 66 63 61 57 51 46 30 17 10 7 6 5 4 4 4 3 3 2 2 2 2 2 2 2 2 2 2 2 2 2 2 2 2 2 2
90 88 92 90 77 68 63 62 61 61 53 46 37 22 13 8 6 5 5 4 4 3 3 3 2 2 2 2 2 2 2 2 2 2 2 2 2 2 2 2 2 2 2
96 94 83 73 70 62 60 59 58 51 41 28 16 10 7 6 5 4 4 3 3 2 2 2 2 2 2 2 2 2 2 2 2 2 2 2 2 2 3 2 2 2 2
95 88 75 69 62 62 59 52 41 32 19 12 8 6 5 4 4 3 3 2 2 2 2 2 2 2 2 2 2 2 2 2 2 2 2 2 2 3 3 3 3 2 2
79 72 69 61 59 50 40 32 22 13 9 7 6 5 4 3 3 2 2 2 2 2 2 2 2 2 2 2 2 2 2 2 2 2 2 2 2 3 3 3 3 2 2

GFSGL_250_rhum_036.txt.gz
RH
54 52 88 67 83 100 95 70 95 100 100 100 100 100 100 98 98 97 100 100 100 100 99 87 80 80 72 78 76 74 67 56 53 67 67 61 60 56 50 40 33 29 32
53 62 80 91 91 71 74 95 92 93 100 100 100 100 98 100 100 100 100 99 94 92 83 75 83 79 80 75 76 68 67 73 69 63 67 64 63 52 43 34 33 34 30
62 59 89 90 58 79 79 77 74 82 84 91 100 100 92 89 94 99 94 90 83 88 90 87 89 82 84 83 75 76 79 70 68 65 67 61 54 42 33 40 39 33 24
52 48 65 73 68 68 65 70 71 71 80 89 89 90 95 100 98 90 81 85 97 100 94 86 79 87 84 78 79 78 78 71 69 66 62 61 55 48 34 27 28 21 14
62 56 61 70 66 67 68 65 65 62 73 96 93 96 95 89 84 95 98 94 88 82 82 90 92 87 84 86 82 82 78 67 70 69 72 68 61 44 30 20 17 13 11
70 59 57 66 76 75 72 54 43 42 48 57 65 78 87 96 95 92 93 92 97 96 95 89 85 94 85 80 78 74 71 74 78 79 70 62 51 35 25 16 12 8 7
40 44 42 41 41 41 45 47 55 64 77 87 96 100 98 100 99 93 93 91 92 86 80 80 77 75 79 80 67 79 84 82 80 74 68 63 41 27 18 12 8 6 5
49 58 60 57 56 59 63 67 76 83 91 92 94 92 88 86 87 97 89 85 86 81 78 78 82 75 72 78 93 92 82 81 77 70 57 36 24 16 10 7 5 4 5
84 87 78 60 54 54 55 62 69 72 73 73 86 93 93 96 84 83 85 80 73 78 75 76 82 84 91 97 88 84 76 77 70 50 33 20 12 9 6 5 4 4 6
96 87 81 66 62 67 70 75 82 92 98 98 100 99 88 84 92 88 76 76 73 70 74 85 95 96 98 94 83 70 67 58 42 30 20 11 8 5 4 5 4 4 4
92 97 94 90 90 94 98 100 100 100 100 98 89 82 82 91 86 86 87 83 89 89 93 99 100 99 94 86 73 67 50 33 24 15 10 7 5 4 5 5 4 3 3
72 86 97 100 100 100 100 100 100 96 81 73 78 86 82 83 89 96 97 100 99 100 97 93 87 86 81 69 56 41 28 18 12 9 6 5 5 5 5 4 3 3 3
82 86 100 100 100 100 100 95 88 80 76 76 81 81 80 83 97 100 91 90 97 90 84 75 72 68 57 44 32 23 16 11 9 6 5 5 5 4 3 3 4 4 3
84 85 98 98 89 83 78 80 82 77 76 79 78 78 90 95 90 82 83 84 85 74 66 65 59 50 37 26 22 16 12 9 6 5 5 5 4 3 3 3 3 4 4
68 75 77 77 74 73 82 84 84 95 96 93 94 92 91 86 80 79 80 79 71 66 58 53 43 31 24 19 14 11 9 6 5 5 4 4 3 3 3 3 3 3 3
59 64 65 74 73 85 98 93 95 90 90 91 91 92 88 76 68 80 83 67 58 51 47 35 23 17 13 10 9 7 6 5 4 4 3 3 3 3 3 3 3 3 3
62 59 63 67 70 74 80 83 82 87 95 95 94 88 81 89 84 80 63 56 56 48 36 24 16 12 8 7 6 6 5 4 4 3 3 3 3 2 3 3 3 3 3
61 57 61 67 74 80 84 79 75 83 92 99 90 99 100 95 80 64 59 58 52 39 23 15 10 7 6 6 5 5 4 3 3 3 3 2 2 3 3 2 2 2 2
79 70 71 84 87 79 80 85 91 94 94 89 83 86 90 84 72 66 64 59 47 28 20 13 8 6 6 5 5 4 3 3 3 2 2 2 2 2 2 2 2 2 2
77 72 70 70 74 76 78 92 100 100 94 89 92 95 78 65 55 55 48 39 27 18 11 7 6 5 4 4 3 3 2 2 2 2 2 2 2 2 2 2 2 2 2
80 78 80 82 84 93 100 100 100 98 97 100 95 79 64 55 52 46 40 26 16 9 6 6 5 4 3 3 3 2 2 2 2 2 2 2 2 2 2 2 2 2 2
89 91 92 95 100 100 100 100 100 98 99 88 84 69 66 56 48 39 23 13 8 6 5 4 4 3 2 2 2 2 2 2 2 2 2 2 2 2 2 2 2 2 2
98 100 99 100 100 100 100 97 87 92 86 81 66 60 52 47 32 16 11 7 6 5 4 3 3 2 2 2 2 2 2 2 2 2 2 2 2 2 2 2 2 2 3
100 100 100 98 100 97 81 82 83 72 69 59 54 41 34 22 12 8 6 5 4 3 2 2 2 2 2 2 2 2 2 2 2 2 2 2 2 2 2 2 2 2 3
100 94 94 96 93 75 73 70 61 57 52 42 32 23 14 9 7 5 4 4 3 2 2 2 2 2 2 2 2 2 2 2 2 2 2 2 2 2 2 2 2 3 3
90 87 82 77 62 59 51 49 44 38 33 25 16 10 7 6 4 3 3 2 2 2 2 2 2 2 2 2 2 2 2 2 2 2 2 2 2 2 2 2 2 2 3

GFSGL_250_rhum_039.txt.gz
RH
100 100 78 99 100 92 100 100 90 100 100 100 100 100 100 100 100 100 100 100 100 100 100 100 95 92 88 80 76 80 85 71 69 78 74 72 70 69 65 64 58 57 56
100 100 76 96 100 100 96 100 100 100 90 100 100 100 100 100 100 100 100 100 100 100 100 95 93 90 92 83 92 86 78 75 68 60 68 74 78 70 69 63 54 51 49
100 100 95 90 100 96 98 100 100 100 100 100 100 100 99 78 88 87 94 100 100 100 100 92 89 80 91 100 93 79 74 67 64 62 73 83 72 73 61 62 53 48 39
100 94 95 98 85 93 96 100 88 90 100 96 89 77 68 82 71 61 59 67 83 79 74 73 88 98 93 88 80 73 68 68 73 71 68 66 82 82 70 65 48 38 26
48 44 40 34 29 41 74 77 63 60 58 57 52 52 52 45 43 46 54 64 80 86 91 91 88 88 81 74 75 74 76 76 66 68 73 75 81 81 75 66 49 29 19
38 36 35 34 28 27 29 28 26 27 29 32 34 36 37 46 62 70 77 78 79 87 84 84 80 76 76 78 89 87 76 72 72 66 81 90 91 76 65 53 36 18 12
43 42 37 37 38 38 37 39 43 46 48 49 49 51 56 60 61 68 75 82 78 82 87 82 75 82 82 89 93 85 79 77 81 91 92 90 74 65 49 34 20 12 8
41 47 52 56 65 66 59 65 76 76 62 56 57 60 67 80 88 88 88 85 85 73 73 74 84 94 90 89 84 83 91 96 99 100 90 73 60 48 33 18 11 7 6
43 46 47 52 64 80 92 95 98 97 92 92 97 96 90 88 92 95 90 74 73 83 92 92 93 86 85 84 80 88 94 94 91 82 66 54 41 28 18 10 8 6 4
56 54 53 52 55 64 66 67 76 87 92 85 78 76 87 94 97 86 84 78 88 98 88 90 87 89 92 85 83 75 70 75 71 60 49 32 21 14 10 7 5 4 4
67 59 66 69 61 54 60 66 71 72 74 90 98 98 92 84 83 82 81 86 86 88 84 89 92 95 95 92 84 72 68 58 45 36 23 14 11 8 6 6 5 4 4
75 72 74 83 77 71 60 71 75 76 87 86 84 83 92 91 87 83 85 89 94 99 97 98 100 100 100 91 74 64 53 38 26 17 12 9 8 6 5 5 4 4 3
84 90 90 71 84 82 70 59 65 74 84 74 73 84 88 82 74 75 86 86 87 91 98 95 98 95 88 73 64 51 42 28 18 11 8 7 6 5 4 4 4 3 3
74 73 86 89 97 94 85 83 64 60 69 78 71 71 75 76 72 77 84 83 98 100 97 96 90 80 77 73 58 53 37 25 15 9 7 6 5 4 4 3 3 3 3
95 96 84 94 95 97 81 98 87 73 67 70 76 80 79 78 74 75 81 83 98 100 96 83 75 90 79 59 52 42 32 19 11 8 6 4 4 3 3 3 3 3 3
83 76 96 99 95 94 93 88 94 92 84 81 77 77 76 82 86 78 86 100 100 92 86 94 94 75 52 45 37 30 20 11 8 6 4 3 3 3 3 2 2 2 3
83 90 88 97 100 95 95 86 85 91 86 81 72 76 87 88 88 88 94 100 99 87 85 83 59 48 42 34 24 17 10 8 6 4 3 3 2 3 2 2 2 2 3
79 83 89 100 100 96 93 92 90 88 74 80 77 71 88 95 88 82 92 99 88 82 70 57 48 37 28 22 16 10 7 5 4 3 3 2 2 2 2 2 2 2 2
87 98 97 100 100 100 100 92 90 79 78 83 70 91 100 100 100 100 100 99 92 71 60 50 39 29 22 13 8 6 4 3 3 3 2 2 2 2 2 2 2 2 2
92 95 100 100 100 97 92 88 79 75 78 88 90 94 100 100 100 100 100 97 71 56 41 32 26 16 9 7 5 4 4 3 2 2 2 2 2 2 2 2 2 2 2
100 100 100 100 100 100 84 81 77 95 99 98 98 100 100 100 99 99 88 67 50 35 29 20 12 8 6 5 4 3 3 2 2 2 2 2 2 2 2 2 2 2 2
100 100 100 100 99 86 75 88 96 98 99 97 100 100 100 98 92 71 60 46 34 24 15 10 7 5 4 4 3 3 2 2 2 2 2 2 2 2 2 2 2 2 2
100 100 100 96 85 80 85 88 94 91 100 100 100 95 92 77 60 50 37 27 20 12 8 6 4 4 3 3 2 2 2 2 2 2 2 2 2 2 2 2 2 2 2
100 100 92 89 76 69 80 92 95 100 97 95 94 76 59 52 40 29 18 13 9 6 5 4 3 3 3 2 2 2 2 2 2 2 2 2 2 2 2 2 2 2 2
88 90 81 56 53 71 88 96 93 90 85 61 54 48 40 27 18 13 9 6 5 4 3 3 2 2 2 2 2 2 2 2 2 2 2 2 2 2 2 2 2 2 2
81 67 55 52 61 82 86 82 65 55 50 41 33 25 17 11 8 6 5 4 4 3 2 2 2 2 2 2 2 2 2 2 2 2 2 2 2 2 2 2 2 2 2

GFSGL_250_rhum_042.txt.gz
RH
73 77 90 67 42 84 100 100 99 100 100 100 100 100 100 100 99 73 100 100 100 100 100 100 100 100 100 100 100 83 78 64 71 95 96 80 67 68 78 76 70 68 62
61 99 100 99 100 100 100 100 100 100 100 100 100 100 100 100 100 100 100 100 100 100 100 99 89 89 85 63 61 64 79 84 90 83 79 87 90 88 83 81 71 62 67
46 89 98 100 100 99 100 98 100 100 100 100 100 100 100 100 94 100 100 100 100 100 98 72 60 47 48 64 73 77 88 79 75 83 85 95 96 92 81 66 63 70 77
80 92 98 100 94 100 100 100 97 97 93 100 100 100 100 89 100 100 100 100 92 74 65 48 49 72 77 74 94 86 74 82 85 88 86 84 82 76 73 74 79 87 85
70 98 100 100 100 99 100 100 100 100 100 100 100 100 100 100 100 86 61 51 46 46 58 70 71 77 97 89 77 80 80 87 87 77 79 78 90 86 79 88 86 84 70
43 61 100 100 100 100 100 100 100 98 95 80 68 73 89 50 45 56 60 57 57 59 71 75 88 96 85 80 84 78 88 87 79 79 84 88 90 85 90 85 76 56 42
46 79 90 92 98 96 86 76 79 85 65 44 48 60 60 65 78 79 78 73 69 74 78 79 85 87 86 88 77 81 79 72 76 82 88 90 88 91 65 61 49 32 24
36 42 36 37 37 38 38 39 39 38 38 38 38 38 42 47 52 58 66 72 72 76 77 84 80 83 82 80 80 93 91 90 86 93 92 100 91 60 56 43 34 21 14
51 47 46 51 46 48 46 45 44 45 47 45 42 44 54 57 56 56 63 69 76 85 75 75 81 80 78 77 76 84 95 99 98 100 98 89 77 66 48 34 24 12 7
44 48 53 60 60 61 58 76 72 59 60 59 56 62 53 52 57 63 78 78 69 67 78 86 84 78 77 76 90 89 94 83 95 95 96 92 69 62 56 29 14 8 6
50 46 46 48 50 53 56 62 70 80 77 74 69 69 71 74 66 62 66 69 70 72 77 76 79 95 88 82 86 83 82 84 98 96 88 78 68 58 37 22 11 6 5
54 72 67 56 51 53 59 62 57 58 74 85 90 82 76 75 80 87 82 77 77 79 79 84 97 84 81 82 80 86 90 94 98 93 75 67 48 35 22 13 8 5 4
49 59 68 64 56 57 62 67 61 59 67 76 80 79 79 87 87 82 84 81 82 84 83 69 76 79 89 90 89 90 96 91 87 85 60 39 26 16 11 7 6 4 4
59 63 72 73 74 65 59 67 57 61 71 68 81 90 84 82 88 90 86 84 82 79 80 85 77 82 88 95 94 94 86 87 80 62 39 25 16 10 7 5 4 3 3
78 76 77 86 86 74 68 70 62 61 62 67 79 90 93 91 100 100 98 96 88 87 83 80 76 74 70 84 89 90 92 87 66 46 28 17 11 8 6 4 3 3 3
82 79 80 81 87 83 74 62 63 62 61 70 84 96 98 100 100 100 94 93 93 84 79 80 79 78 91 96 97 95 88 64 49 29 19 10 8 6 4 3 3 2 2
78 61 66 68 77 85 79 71 67 64 66 75 96 100 98 98 100 95 82 79 81 79 82 85 93 96 90 100 95 81 62 46 27 17 10 7 5 4 3 3 3 2 2
85 75 65 64 88 82 73 78 80 72 74 90 98 99 92 99 99 84 63 62 81 88 91 88 84 90 94 88 75 54 40 24 14 8 6 5 4 4 3 2 2 2 2
88 75 68 78 88 82 88 76 74 80 89 91 100 100 100 100 94 60 53 74 88 87 90 82 92 94 86 63 50 34 20 12 7 6 5 4 3 3 2 2 2 2 2
93 72 61 80 71 78 79 88 93 93 100 100 100 100 100 89 61 51 70 87 91 87 81 92 92 79 60 48 26 15 9 7 5 4 4 3 3 3 2 2 2 2 2
61 55 78 79 93 100 100 99 97 100 100 100 100 96 83 62 50 63 83 87 83 82 90 76 59 50 34 16 11 7 6 4 3 3 3 3 2 2 2 2 2 2 2
62 92 100 100 100 98 99 100 100 100 100 100 94 76 54 48 58 66 64 73 78 74 61 49 35 20 11 7 6 5 4 3 3 3 2 2 2 2 2 2 2 2 2
97 100 100 100 91 84 95 100 97 93 87 75 66 50 46 45 49 55 60 62 57 45 34 20 11 7 6 4 4 3 3 3 3 2 2 2 2 2 2 2 2 2 2
100 98 78 73 78 78 77 83 87 74 61 51 41 38 40 42 45 48 46 38 28 18 10 7 6 5 4 3 2 2 3 3 2 2 2 2 2 2 2 2 2 2 2
76 68 69 63 69 82 86 60 47 45 38 36 35 34 37 38 36 32 24 16 10 7 6 4 4 3 2 2 2 2 2 2 2 2 2 2 2 2 2 2 2 2 2
61 62 66 66 63 47 39 36 32 32 32 33 34 33 30 26 19 12 8 6 5 4 4 3 2 2 2 2 2 2 2 2 2 2 2 2 2 2 2 2 2 2 2

GFSGL_250_rhum_045.txt.gz
RH
63 74 77 78 85 72 58 56 68 96 98 71 100 100 100 100 100 100 100 100 98 100 80 100 100 100 100 100 100 100 100 87 64 96 84 93 88 79 72 66 72 73 66
51 50 58 60 68 77 67 61 85 99 93 100 99 100 100 100 100 100 100 98 100 95 100 100 100 100 100 100 100 79 60 62 70 70 89 97 90 79 77 80 77 76 68
49 56 68 70 69 67 64 66 100 84 86 97 100 100 100 100 100 100 100 98 72 93 100 100 100 100 100 95 76 55 59 74 84 92 100 94 80 81 78 78 82 88 79
41 48 57 72 88 80 78 89 78 83 100 100 100 100 100 100 100 95 64 85 100 100 100 100 100 100 85 65 66 75 76 83 91 99 90 90 85 79 74 76 80 81 83
41 44 44 56 68 91 85 77 85 72 73 99 92 100 100 100 100 97 100 100 100 100 100 100 90 72 64 72 70 73 91 82 92 90 92 89 80 70 76 70 69 74 88
32 40 46 46 59 85 100 86 99 100 100 86 73 78 98 100 100 100 100 100 100 97 66 66 54 52 57 60 75 83 84 84 89 96 94 86 82 81 70 80 70 66 63
35 31 35 52 69 76 89 99 100 100 100 100 100 100 100 100 100 95 81 59 46 42 47 53 50 52 58 83 85 78 75 77 75 78 91 93 85 72 72 68 71 84 84
41 40 38 59 80 97 100 100 100 100 95 83 66 52 48 44 46 46 48 48 50 52 55 55 55 58 66 70 70 79 76 78 82 86 83 83 78 74 74 72 71 70 66
36 40 44 39 39 44 47 49 51 46 44 41 42 39 39 45 47 43 46 52 61 67 75 79 83 81 78 79 83 86 92 93 90 80 77 75 77 78 77 61 49 56 52
53 44 36 48 51 56 55 57 50 46 43 48 48 49 50 50 51 53 52 51 56 63 70 73 83 91 93 87 85 92 95 93 84 75 75 86 84 80 85 73 57 60 48
78 64 55 49 42 44 40 38 40 42 43 45 44 43 45 51 52 51 51 57 64 70 74 75 84 91 91 100 97 95 100 93 87 88 86 86 88 89 88 84 76 54 36
99 92 68 64 71 60 51 46 42 45 52 58 63 61 60 59 53 52 57 59 65 72 79 86 93 90 95 99 89 89 95 89 91 87 84 87 89 84 89 80 75 58 30
100 100 99 84 86 80 78 75 62 49 55 62 68 68 70 65 67 69 67 60 70 76 75 94 100 100 100 100 96 83 95 97 90 80 88 86 80 86 81 75 61 30 18
100 100 100 100 86 85 89 81 80 78 77 71 64 64 72 71 70 70 79 81 79 80 79 96 97 97 100 100 95 90 87 87 80 79 73 83 84 77 74 51 25 13 9
100 100 95 99 100 92 84 76 84 89 89 80 69 59 68 72 77 95 92 90 80 79 85 98 100 100 100 100 86 69 77 73 66 63 79 71 60 59 45 19 11 7 6
100 100 100 97 100 98 78 70 67 86 96 93 82 61 69 78 98 100 94 89 81 90 100 100 100 100 94 69 67 67 61 58 64 73 63 51 46 29 17 11 7 5 4
100 100 100 100 83 69 68 76 86 100 100 95 75 67 76 77 100 100 98 88 90 100 100 100 100 99 80 66 58 53 57 66 64 55 48 41 23 14 10 7 5 4 4
100 100 96 80 82 83 87 85 100 98 91 82 75 66 68 99 96 90 91 97 100 100 100 100 95 76 59 50 47 50 54 52 44 38 32 17 10 8 6 5 4 4 3
100 100 100 100 99 94 85 100 95 92 99 84 62 58 75 83 89 97 97 94 100 100 99 76 59 50 44 44 47 43 42 34 29 22 12 9 7 5 4 4 4 3 3
100 100 100 99 93 90 83 82 98 100 96 68 68 83 99 93 95 100 99 100 100 92 63 50 43 42 44 40 37 34 29 23 15 10 7 6 4 3 3 4 3 2 2
100 83 80 74 70 88 93 100 100 98 65 70 86 100 100 99 97 95 98 99 73 50 44 39 40 37 32 31 28 23 17 10 8 6 5 4 3 3 4 3 2 2 2
82 73 76 94 98 99 98 96 78 70 82 99 100 99 88 84 87 85 70 62 52 40 34 34 29 26 22 20 16 10 8 6 5 4 4 3 3 3 3 2 2 2 2
96 95 92 94 95 91 75 72 84 94 100 100 91 82 80 77 58 55 47 33 29 28 28 25 22 18 15 11 7 6 5 4 3 3 3 3 3 3 2 2 2 2 2
94 96 83 64 72 81 82 88 100 100 99 82 79 70 61 49 40 28 27 26 25 21 18 15 12 9 6 5 4 3 2 3 3 3 3 2 2 2 2 2 2 2 2
78 79 72 72 76 84 96 98 93 81 74 72 58 45 34 26 24 23 22 18 16 14 10 6 5 5 4 3 2 2 2 3 3 2 2 2 2 2 2 2 2 2 2
73 73 76 77 78 78 74 64 60 56 48 39 29 23 22 20 18 16 12 10 7 5 4 4 3 3 2 2 2 2 2 2 2 2 2 2 2 2 2 2 2 2 2